STARLINK-2160, 47746

Orbit data source: Space-Track

STARLINK-2160, 47746 is a payload satellite owned by SpaceX/Seattle (US) in LEO that was launched on Thu, 04 Mar 2021 UTC via an FALCON 9 launch vehicle from the Air Force Eastern Test Range (AFETR). Payload-class satellites include a variety of spacecraft equipped with specific instruments for various scientific and technological missions. These include communications satellites like Starlink; space stations such as the ISS; scientific satellites like the Hubble; Earth observation satellites from companies like Planet Labs, Umbra, and HawkEye 360; GPS; miniature CubeSats for education and research; and military/defense satellites.

Loading next visibility...
Identifier
47746, 2021-017AA
Orbit
LEO
Country
Flag of USUS
Related business
Manufacturer
SpaceX/Seattle
Mission
Partially operational Commercial Communications
Bus & Motor
STARLINK, Unknown motor
Mass
260 kg wet, ~248 kg dry
Launch date (UTC)
2021-03-04 (5 years ago)
Launch vehicle
FALCON 9
Launch site
Air Force Eastern Test Range (AFETR)
Object type
Payload
Rocket body
Debris
Shape & HBR
Box + 1 Pan, 10.1 m
Radar Cross Section
13.562 m², Large (>1 m²)

Expand to show TLE details & history
Last TLE update: 5 hours ago

TLE from 5 hours ago
0 STARLINK-2160
1 47746U 21017AA  26236.58972394  .00085689  00000-0  60449-3 0  9997
2 47746  53.1527 123.0065 0001448 213.7637 146.3291 15.73362444303838
Epoch: 2026-08-24T14:09Z
TLE epoch observation values (Epoch: 2026-08-24T14:09:12.148Z)
Latitude
0.00003°
Longitude
-62.16334°
Altitude
351.021 km
Speed
7.699 km/s
True Right ascension
08h 12m 01s
True Declination
0° 00' 00"
Sunlit
Object was in daylight at epoch
Visualization orbit readout
Latitude
Unknown
Longitude
Unknown
Altitude
Unknown
Speed
Unknown
Apparent Right ascension
Unknown
Apparent Declination
Unknown
Sunlit
N/A
Visualization observer readout
Local Sidereal Time
10:27:10
Azimuth
Unknown
Elevation
Unknown
Doppler factor
Unknown
Orbital elements
Apogee altitude
350.532 km
Perigee altitude
348.583 km
Semi-major axis
6,727.694 km
Eccentricity
0.00014
Inclination
53.1527°
RAAN
123.0065°
Arg. of periapsis
213.7637°
True anomaly
146.3383°
Mean anomaly
146.3291°
Eccentric anomaly
146.3337°
Mean motion
3.93318 °/min
Orbital period
91.53 mins
BSTAR
0.00060449
Loading maneuver chart data...
Computing Atmospheric mass density...

Documentation

Showing up to 5 results
|